Showing default

FLOCK 4H 18, 66721

Orbit data source: Space-Track

FLOCK 4H 18, 66721 is a payload satellite owned by Planet (US) in SSO that was launched on Fri, 28 Nov 2025 UTC via an FALCON 9 launch vehicle from the Air Force Western Test Range (AFWTR). Payload-class satellites include a variety of spacecraft equipped with specific instruments for various scientific and technological missions. These include communications satellites like Starlink; space stations such as the ISS; scientific satellites like the Hubble; Earth observation satellites from companies like Planet Labs, Umbra, and HawkEye 360; GPS; miniature CubeSats for education and research; and military/defense satellites.

Loading next visibility...
Identifier
66721, 2025-276BH
Orbit
SSO
Country
Flag of USUS
Related business
Manufacturer
Planet
Mission
Operational Commercial Imaging
Bus & Motor
CUBESAT 3U, Unknown motor
Mass
5.7 kg wet, 5.7 kg dry
Launch date (UTC)
2025-11-28 (9 months ago)
Launch vehicle
FALCON 9
Launch site
Air Force Western Test Range (AFWTR)
Object type
Payload
Rocket body
Debris
Shape & HBR
Box + 2 Pan, 1.0 m
Radar Cross Section
0.072 m², Medium (>0.1 m² and < 1m²)

Expand to show TLE details & history
Last TLE update: 8 hours ago

TLE from 8 hours ago
0 FLOCK 4H 18
1 66721U 25276BH  26238.52913390  .00006267  00000-0  28935-3 0  9998
2 66721  97.4138 310.7767 0005251 128.2959 231.8749 15.20549468 41100
Epoch: 2026-08-26T12:41Z
TLE epoch observation values (Epoch: 2026-08-26T12:41:57.168Z)
Latitude
-0.00009°
Longitude
145.50769°
Altitude
509.506 km
Speed
7.608 km/s
True Right ascension
20h 43m 06s
True Declination
0° 00' 00"
Sunlit
Object was in full shadow at epoch
Visualization orbit readout
Latitude
Unknown
Longitude
Unknown
Altitude
Unknown
Speed
Unknown
Apparent Right ascension
Unknown
Apparent Declination
Unknown
Sunlit
N/A
Visualization observer readout
Local Sidereal Time
11:46:56
Azimuth
Unknown
Elevation
Unknown
Doppler factor
Unknown
Orbital elements
Apogee altitude
504.76 km
Perigee altitude
497.535 km
Semi-major axis
6,879.285 km
Eccentricity
0.00053
Inclination
97.4138°
RAAN
310.7767°
Arg. of periapsis
128.2959°
True anomaly
231.82758°
Mean anomaly
231.8749°
Eccentric anomaly
231.85124°
Mean motion
3.80389 °/min
Orbital period
94.64 mins
BSTAR
0.00028935
Loading maneuver chart data...
Computing Atmospheric mass density...
Loading historical data...
Loading historical data...
Loading historical data...
Loading historical data...
Loading historical data...
Loading historical data...
Loading historical data...

Documentation

Showing up to 5 results
|